Location: Zagreb
(45.8000°N, 16.0000°E)
Time: 15:47:24
(UTC+01:00)

SR - Pass Details

Date: 27 October 2020
Orbit: 579 x 876 km, 66.7° (Epoch: 27 November)

Event Time Altitude Azimuth Distance (km) Brightness Sun altitude
Exits shadow 04:28:18 13° 344° (NNW) 1,753 ? -21.7°
Drops below altitude 10° 04:29:36 10° 0° (N) 1,990 ? -21.4°
Sets 04:32:54 0° 25° (NNE) 2,956 ? -20.9°
